Terminal Aerodrome Forecast
Issued by NWS Omaha/Valley, NE

Home | Current Version | Previous Version | Text Only | Print | Product List | Glossary On
Versions: 1 2 3 4 5 6 7 8 9 10 11 12 13 14 15 16 17 18 19 20 21 22 23 24 25 26
000
FTUS43 KOAX 250416 AAA
TAFLNK
TAF AMD
KLNK 250416Z 2504/2524 VRB04KT P6SM FEW250
     FM251400 06004KT P6SM SKC
     FM251900 10006KT P6SM SKC=

USA.gov is the U.S. government's official web portal to all federal, state and local government web resources and services.